AirNav   Everest Fuels
 
 580 users online  

5I2 Flora Municipal Airport
Flora, Indiana, USA

GOING TO FLORA?


FAA INFORMATION EFFECTIVE 16 JUNE 2022

Location

FAA Identifier: 5I2
Lat/Long: 40-32-23.1300N 086-32-53.9990W
40-32.385500N 086-32.899983W
40.5397583,-86.5483331
(estimated)
Elevation: 710 ft. / 216 m (estimated)
Variation: 02W (1985)
From city: 2 miles SW of FLORA, IN
Time zone: UTC -4 (UTC -5 during Standard Time)
Zip code: 46929

Airport Operations

Airport use: Open to the public
Activation date: 02/1967
Control tower: no
ARTCC: CHICAGO CENTER
FSS: TERRE HAUTE FLIGHT SERVICE STATION
NOTAMs facility: HUF (NOTAM-D service available)
Attendance: UNATNDD
Wind indicator: lighted
Segmented circle: no
Lights: SS-SR

Airport Communications

CTAF: 122.9
WX AWOS-3P at GGP (13 nm NE): 118.5 (574-737-7310)
WX AWOS-3P at MCX (14 nm NW): 124.05 (574-583-0531)
WX AWOS-3 at FKR (16 nm S): 124.325 (765-654-0328)
WX ASOS at LAF (19 nm SW): PHONE 765-743-9687

Airport Services

Parking: tiedowns
Airframe service: NONE
Powerplant service: NONE
Bottled oxygen: NONE
Bulk oxygen: NONE

Runway Information

Runway 9/27

Dimensions: 2143 x 93 ft. / 653 x 28 m
Surface: turf, in good condition
Runway edge lights: low intensity
RUNWAY 9  RUNWAY 27
Latitude: 40-32.418833N40-32.418833N
Longitude: 086-33.151833W086-32.681167W
Elevation: 710.0 ft.710.0 ft.
Traffic pattern: leftleft
Runway end identifier lights: nono
Obstructions: 15 ft. road, 285 ft. from runway, 20:1 slope to clear10 ft. crops, 200 ft. from runway, 20:1 slope to clear

Airport Ownership and Management from official FAA records

Ownership: Publicly-owned
Owner: TOWN OF FLORA
4 EAST MAIN ST
FLORA, IN 46929
Phone 574-967-4844
Manager: JORETTA TINSMAN
4 EAST MAIN ST
FLORA, IN 46929
Phone (574) 967-4844

Airport Operational Statistics

Aircraft based on the field: 7
Single engine airplanes: 4
Ultralights: 3
    
Aircraft operations: avg 38/week *
75% local general aviation
25% transient general aviation
* for 12-month period ending 31 December 2019

Additional Remarks

FOR CD CTC CHICAGO ARTCC AT 630-906-8921.

Instrument Procedures

There are no published instrument procedures at 5I2.

Some nearby airports with instrument procedures:

KGGP - Logansport/Cass County Airport (13 nm NE)
KMCX - White County Airport (14 nm NW)
KFKR - Frankfort Clinton County Regional Airport (16 nm S)
KGUS - Grissom Air Reserve Base (19 nm E)
KLAF - Purdue University Airport (19 nm SW)
 
Loc | Ops | Rwys | IFR | FBO | Links
Com | Nav | Svcs | Stats | Notes
Area around 5I2 (Flora Municipal Airport)
 
Road maps at: MapQuest Bing Google
 
Aerial photo
WARNING: Photo may not be current or correct
Aerial photo of 5I2 (Flora Municipal Airport)
Do you have a better or more recent aerial photo of Flora Municipal Airport that you would like to share? If so, please send us your photo.

 
Sectional chart

 
Airport distance calculator
Flying to Flora Municipal Airport? Find the distance to fly.

From to 5I2

Sunrise and sunset
Times for 29-Jun-2022
 Local
(UTC-4)
 Zulu
(UTC)
Morning civil twilight05:4609:46
Sunrise06:1910:19
Sunset21:2001:20
Evening civil twilight21:5301:53

Current date and time
Zulu (UTC)  29-Jun-2022 06:09:06
Local (UTC-4)  29-Jun-2022 02:09:06
 
METAR
KGGP 
13nm NE 
290555Z AUTO 24003KT 10SM CLR 15/10 A3020 RMK AO2
KMCX 
14nm NW 
290555Z AUTO 20003KT 10SM CLR 18/11 A3018 RMK AO2 T01760106 10266 20172
KFKR 
16nm S 
290555Z AUTO 00000KT 10SM SCT040 SCT047 15/12 A3019 RMK AO2
KGUS 
19nm E 
290556Z AUTO 20003KT 10SM CLR 17/11 A3018 RMK AO2 SLP219 T01730109 10258 20168 $
KLAF 
20nm W 
290554Z AUTO 00000KT 10SM CLR 15/13 A3019 RMK AO2 SLP218 T01500128 10261 20150 52007
KOKK 
22nm E 
290556Z AUTO 17005KT 10SM CLR 15/14 A3020 RMK AO2 SLP223 T01500144 10267 20150 51006
TAF
KGUS 
19nm E 
282100Z 2821/3003 VRB06KT 9999 SKC QNH3017INS BECMG 2914/2915 25010G15KT 9999 FEW035 BKN050 OVC075 QNH3022INS BECMG 2923/2924 VRB06KT 9999 SCT035 OVC050 QNH3015INS TX30/2920Z TN14/2908Z LAST NO AMDS AFT 2903 NEXT 2913
KLAF 
20nm W 
290232Z 2903/2924 24003KT P6SM SKC FM291400 24005KT P6SM FEW240 AMD LTD TO CLD VIS AND WIND 2901/2913
NOTAMs
Click for the latest NOTAMs
NOTAMs are issued by the DoD/FAA and will open in a separate window not controlled by AirNav.

 

 
 

Would you like to see your business listed on this page?

 If your business provides an interesting product or service to pilots, flight crews, aircraft, or users of the Flora Municipal Airport, you should consider listing it here.  To start the listing process, click on the button below
 
Add a business
 

Other Pages about Flora Municipal Airport

Update a link
 
Copyright © AirNav, LLC. All rights reserved. Privacy Policy  Contact